Wind_Speed
13 13 13 13 14 13 13 13 13 12 13 14 15 16 17 17 17 18 18 18 18 18 18 19 18 19 18 18 19 19 18 18 18 18 18 19 20 21
14 14 14 13 13 13 13 13 13 13 13 14 15 16 17 17 17 18 18 18 19 19 19 18 19 19 19 19 20 20 19 19 19 19 20 20 21 21
15 15 14 14 14 14 14 15 15 16 16 16 16 17 17 18 18 19 20 20 19 19 19 19 19 19 19 19 20 20 20 20 20 20 21 21 21 21
15 15 15 15 16 15 16 16 17 18 17 17 18 18 19 20 21 21 21 20 20 20 20 20 20 20 20 20 20 20 21 21 21 21 22 22 22 22
15 15 16 16 17 17 18 18 19 19 19 18 19 19 20 21 21 21 22 22 22 22 21 21 21 21 21 21 21 21 21 21 21 21 22 22 22 23
16 16 17 17 18 18 19 20 20 20 20 21 21 21 22 23 23 23 23 23 22 22 22 22 22 22 22 22 22 21 21 21 22 22 22 22 22 22
17 18 18 19 19 20 20 21 21 22 22 22 22 22 23 24 24 24 24 24 24 23 23 23 23 23 23 22 22 21 22 22 22 22 22 22 22 23
20 20 20 20 21 21 22 22 23 23 23 24 24 24 25 25 25 26 26 26 26 26 25 25 24 24 24 23 22 22 23 23 22 22 22 22 22 22
23 22 22 22 22 22 23 23 24 24 25 25 25 25 26 26 27 27 26 26 26 26 26 26 26 25 25 24 24 24 24 23 23 23 22 21 22 22
25 25 24 24 24 24 25 25 25 26 26 27 27 27 27 27 27 27 27 27 26 27 27 27 27 26 25 25 24 25 25 24 24 23 23 22 23 23
27 26 25 25 25 26 26 26 26 27 28 28 28 28 29 29 29 28 28 28 27 27 27 27 27 26 26 26 26 26 25 25 25 24 23 24 24 24
27 27 27 26 26 27 28 28 28 28 28 28 29 29 30 30 30 30 30 30 29 28 28 28 28 27 27 27 27 26 26 25 25 25 25 25 25 25
28 28 28 28 29 29 29 29 29 30 29 30 30 30 31 31 31 31 31 31 31 30 29 29 29 29 29 28 27 27 27 26 26 26 26 26 26 26
28 29 29 30 31 31 31 31 31 31 31 30 31 31 31 31 31 31 31 31 31 31 31 30 30 30 29 29 28 28 28 27 27 27 27 26 26 27
30 31 32 32 32 32 32 33 33 33 32 32 32 32 31 31 31 32 32 33 32 32 31 31 31 30 30 29 29 29 29 28 28 28 27 27 27 28
32 32 34 34 34 34 34 35 35 35 34 34 34 33 33 32 32 32 32 32 33 32 32 31 31 30 30 30 29 29 28 28 28 28 29 28 28 27
33 34 34 35 35 35 36 36 36 36 36 36 36 35 34 34 33 33 33 32 32 31 30 31 31 31 31 30 30 30 29 28 28 28 28 28 28 27
34 35 35 36 37 37 37 37 37 37 37 36 36 36 35 35 34 34 33 32 32 31 30 30 30 31 31 31 31 30 30 29 28 28 29 29 28 28
36 36 37 37 38 38 38 38 38 38 37 37 37 37 36 35 35 35 33 32 32 32 31 30 30 31 32 32 30 30 30 30 30 29 29 29 29 28
36 37 38 38 38 38 37 38 38 38 37 37 37 37 36 36 36 35 34 33 32 32 31 30 30 31 31 32 31 30 30 31 30 30 30 30 30 29
36 37 38 38 37 37 37 37 37 37 38 38 37 36 36 36 36 35 35 34 33 32 31 31 31 31 31 31 31 30 31 31 31 30 30 30 29 29
37 38 38 37 37 37 37 37 36 36 36 36 36 36 36 35 34 34 34 34 33 33 33 32 32 32 31 31 30 30 29 29 30 30 29 29 29 28
37 36 36 35 35 36 36 36 35 34 35 35 35 34 33 32 32 32 32 32 32 32 31 31 31 30 30 30 29 28 28 28 28 28 28 28 28 28
Wind_Direction
304 304 304 304 302 300 303 302 301 302 301 298 296 295 294 294 292 290 292 294 294 295 296 297 296 295 293 293 291 292 291 290 289 285 281 278 274 272
307 307 306 306 306 305 304 303 302 301 302 301 299 299 298 296 297 296 298 297 296 295 295 296 296 296 294 292 292 293 290 289 287 285 282 281 277 274
308 310 309 308 308 306 304 304 305 304 303 302 300 299 298 298 298 297 296 294 294 294 295 297 296 295 296 295 293 292 290 289 287 285 283 281 277 275
308 309 307 306 305 305 304 304 305 304 302 301 301 299 299 298 298 297 296 296 297 296 296 296 296 295 295 294 293 290 289 288 288 286 284 282 278 276
306 306 306 305 303 302 300 300 301 302 302 300 300 299 298 298 297 298 298 297 296 295 295 296 296 296 295 294 292 290 290 290 289 288 287 285 279 277
304 304 304 304 303 301 300 300 301 301 301 300 299 298 298 297 297 297 297 298 296 295 293 295 296 296 294 293 290 289 291 291 292 291 288 287 282 279
302 303 303 301 300 300 300 300 300 299 299 298 298 298 298 297 298 297 296 295 294 293 292 293 294 294 293 291 290 290 291 291 292 290 288 286 284 280
303 304 304 303 301 301 301 300 299 300 299 297 296 297 297 296 297 297 297 295 293 293 291 292 292 292 292 291 289 290 292 292 292 291 289 287 286 285
301 301 301 302 302 301 301 301 301 301 300 298 298 298 298 297 297 296 295 294 293 292 290 290 290 290 290 289 289 290 291 290 290 290 287 287 287 287
299 301 300 300 300 299 299 299 299 299 299 300 299 298 298 297 296 295 295 295 294 293 291 289 289 289 289 288 288 289 289 288 288 288 287 286 287 285
297 298 298 297 297 298 298 297 297 298 299 298 298 297 297 296 295 294 293 293 294 292 291 290 288 288 289 289 288 288 287 287 286 286 287 288 286 285
296 296 296 297 297 297 298 297 297 298 298 298 297 296 296 295 294 293 291 291 291 291 289 289 288 286 286 287 288 287 286 285 285 285 285 286 286 283
297 296 296 297 297 297 297 298 297 297 298 297 297 297 296 294 292 291 291 290 289 289 289 288 288 288 286 286 285 285 284 283 284 285 285 286 285 283
297 296 295 295 295 296 297 296 296 296 297 296 296 297 297 295 292 291 290 290 290 290 289 288 288 287 286 285 284 283 282 282 284 285 284 284 284 284
296 296 297 297 296 296 295 294 295 296 295 295 295 296 296 295 293 291 290 291 291 290 289 288 287 287 286 285 283 282 281 283 283 282 282 282 282 283
295 295 297 297 296 296 297 295 295 295 295 295 295 295 295 295 293 293 292 291 291 290 287 286 286 285 284 283 282 282 282 282 281 280 280 280 279 279
294 295 296 296 295 295 295 295 294 294 295 295 295 296 295 294 293 292 292 291 291 291 289 285 284 283 283 282 282 281 280 280 279 279 280 279 278 278
296 297 297 297 296 294 294 294 295 293 293 293 293 293 293 293 295 294 291 289 290 290 288 287 285 284 284 283 282 281 280 279 279 279 279 278 278 279
296 297 297 297 296 295 293 292 293 293 292 292 291 291 291 291 291 292 291 290 289 288 287 285 284 284 284 284 283 282 280 279 279 279 278 276 277 277
296 297 298 298 297 295 293 293 293 292 292 292 291 290 290 289 289 290 289 289 288 287 286 285 286 286 286 284 282 280 280 280 280 280 278 277 276 276
297 298 298 297 296 295 295 294 293 293 292 292 292 291 291 289 288 287 287 286 286 287 286 285 286 287 286 285 282 281 280 280 280 280 279 278 277 276
299 299 298 297 295 295 295 295 294 294 295 294 292 290 289 289 288 287 287 286 286 285 285 284 283 284 285 284 284 283 282 281 280 279 279 279 278 276
300 298 297 296 296 297 296 295 294 294 295 295 293 291 290 289 289 289 288 288 287 286 285 285 285 283 283 284 284 283 281 281 280 280 279 278 277 275
Height
5870 5869 5867 5866 5865 5864 5863 5862 5862 5861 5860 5858 5857 5856 5854 5853 5852 5851 5849 5847 5846 5845 5843 5842 5840 5839 5838 5836 5835 5833 5832 5831 5830 5829 5829 5828 5828 5828
5867 5865 5864 5863 5862 5861 5860 5859 5858 5856 5855 5854 5853 5852 5850 5849 5848 5846 5845 5843 5841 5840 5838 5837 5835 5834 5832 5831 5830 5828 5827 5826 5825 5824 5823 5823 5822 5822
5864 5863 5861 5860 5859 5857 5856 5855 5854 5852 5851 5850 5849 5847 5845 5844 5843 5842 5840 5838 5836 5835 5833 5832 5830 5828 5827 5825 5824 5823 5821 5820 5819 5818 5817 5816 5816 5815
5861 5860 5859 5857 5856 5854 5853 5851 5850 5848 5847 5846 5844 5843 5841 5839 5839 5837 5835 5833 5831 5830 5828 5826 5825 5823 5821 5819 5818 5817 5815 5814 5813 5812 5811 5810 5809 5809
5858 5857 5855 5854 5852 5851 5849 5848 5846 5844 5842 5841 5840 5838 5836 5834 5833 5831 5829 5828 5826 5824 5823 5821 5819 5817 5815 5814 5812 5811 5810 5808 5807 5806 5804 5803 5802 5802
5855 5853 5851 5850 5848 5846 5845 5843 5841 5840 5838 5836 5835 5833 5831 5829 5827 5826 5824 5822 5820 5819 5817 5815 5814 5811 5809 5808 5806 5805 5804 5802 5801 5799 5798 5796 5795 5795
5851 5849 5847 5845 5844 5842 5840 5838 5837 5835 5833 5831 5829 5827 5825 5823 5821 5819 5817 5816 5814 5812 5811 5809 5808 5806 5804 5802 5800 5799 5797 5796 5794 5793 5791 5790 5789 5788
5846 5844 5842 5841 5839 5837 5835 5833 5831 5829 5827 5825 5823 5821 5819 5817 5815 5813 5811 5809 5808 5806 5804 5803 5801 5799 5797 5796 5794 5792 5791 5789 5788 5786 5785 5783 5782 5781
5841 5839 5838 5836 5834 5832 5829 5828 5825 5823 5821 5819 5817 5815 5813 5811 5808 5806 5804 5802 5800 5799 5797 5795 5794 5792 5790 5789 5787 5786 5784 5783 5781 5780 5778 5777 5776 5775
5836 5834 5832 5830 5828 5826 5824 5822 5820 5817 5815 5813 5810 5808 5806 5803 5801 5799 5797 5795 5793 5791 5789 5788 5786 5785 5783 5781 5780 5778 5777 5776 5774 5773 5772 5771 5769 5768
5830 5828 5826 5824 5822 5820 5818 5816 5814 5811 5808 5806 5803 5800 5798 5795 5793 5791 5789 5787 5786 5784 5781 5780 5778 5777 5775 5774 5772 5771 5770 5768 5767 5766 5765 5764 5763 5761
5823 5821 5819 5817 5815 5813 5811 5809 5807 5804 5801 5799 5796 5793 5790 5787 5785 5783 5781 5779 5777 5776 5774 5772 5770 5769 5768 5766 5764 5763 5762 5761 5759 5758 5757 5756 5755 5754
5816 5814 5812 5810 5808 5806 5803 5801 5799 5796 5793 5791 5788 5785 5782 5779 5777 5774 5772 5770 5768 5767 5765 5763 5761 5760 5759 5758 5757 5755 5754 5753 5752 5751 5750 5748 5747 5747
5809 5807 5805 5802 5800 5797 5795 5793 5790 5787 5785 5782 5780 5777 5774 5771 5768 5766 5763 5761 5759 5758 5756 5754 5752 5751 5749 5748 5748 5747 5746 5745 5744 5743 5742 5741 5740 5738
5800 5798 5796 5793 5791 5788 5786 5784 5781 5778 5775 5773 5770 5768 5765 5762 5759 5756 5754 5752 5750 5748 5747 5745 5743 5742 5740 5739 5739 5738 5737 5736 5735 5734 5733 5732 5732 5731
5792 5790 5787 5784 5782 5779 5777 5774 5771 5769 5766 5763 5761 5758 5756 5753 5750 5748 5745 5743 5741 5739 5737 5736 5734 5732 5731 5730 5729 5728 5728 5727 5726 5726 5725 5724 5723 5722
5782 5780 5778 5775 5772 5770 5767 5764 5761 5759 5756 5754 5751 5749 5746 5744 5741 5738 5736 5734 5732 5730 5728 5726 5724 5723 5722 5721 5720 5719 5718 5718 5717 5717 5716 5715 5715 5715
5773 5770 5768 5765 5762 5760 5757 5754 5752 5749 5746 5744 5741 5739 5736 5733 5731 5728 5726 5724 5722 5720 5718 5717 5715 5714 5713 5712 5711 5709 5708 5708 5707 5707 5706 5706 5706 5706
5762 5760 5757 5754 5751 5748 5746 5743 5741 5738 5735 5733 5730 5728 5725 5723 5720 5718 5716 5714 5712 5711 5709 5707 5705 5704 5703 5702 5701 5700 5699 5698 5698 5697 5697 5697 5697 5697
5752 5749 5746 5743 5740 5737 5735 5732 5729 5727 5725 5722 5719 5716 5714 5712 5709 5707 5705 5703 5702 5700 5699 5697 5695 5694 5693 5692 5691 5690 5689 5688 5688 5687 5687 5687 5687 5687
5742 5739 5735 5732 5729 5726 5723 5720 5718 5715 5713 5711 5708 5706 5703 5700 5698 5696 5694 5693 5691 5690 5688 5687 5686 5684 5682 5681 5681 5680 5679 5678 5677 5677 5677 5677 5677 5677
5731 5728 5724 5721 5718 5715 5713 5710 5707 5704 5702 5699 5697 5694 5692 5689 5687 5686 5684 5682 5681 5679 5678 5677 5676 5674 5673 5671 5670 5670 5669 5668 5667 5667 5666 5667 5666 5667
5720 5717 5714 5711 5708 5705 5702 5699 5696 5693 5691 5688 5686 5683 5681 5679 5677 5675 5673 5672 5670 5669 5668 5666 5665 5663 5662 5661 5660 5660 5659 5658 5657 5657 5657 5657 5656 5657